Starlink 34014

operational
NORAD ID: 63942 Int'l Des: 2025-098 Owner: SPXS Country: US Constellation: starlink
LEOCIRCULAR

Über Starlink 34014

Beschreibung wird geladen...

Live-Position

3D-Globus wird geladen...

Nächste Überflüge

Höhenverlauf

Altitude vs Time

uPlot chart will show altitude changes over time

Zweizeiliger Elementsatz

1 63942U 25098S 26095.26332996 .00004125 00000-0 35321-3 0 9999
2 63942 70.0037 207.4227 0002727 270.8275 89.2571 14.98336009 50523
Epoch: 5. Apr. 2026 • Age: 10 hours

Aktueller Status

Höhe 577.2 km
Geschwindigkeit 7.57 km/s
Subsatellitenpunkt -15.36°S, 54.07°W
Startdatum 13. Mai 2025
Alter 0.8 years
Typ internet

Technische Details

Klassifizierung Payload
Masse 575.00 kg
Trockenmasse 530.00 kg
Gesamtmasse 575.00 kg
Länge 0.30 m
Durchmesser 4.10 m
Spannweite 29.00 m
Form Box + pan
Hersteller SPXS
Bus-Typ Starlink V2MO
Phasenstatus In Orbit
Besitzer/Staat SPXS/US

Große Konstellationen

Loading constellations...